Vertical_Velocity
3 1 2 1 1 -1 -2 -1 -3 3 -0 -2 -0 -1 -3 -4 2 2 2 -2 -1 -1 -2 -3 -3 -2 -4 -1 -7 -2 -0 -1 2 -10 -3 -4 1 -4 -13 4 2 -11 23
1 2 1 2 -0 -1 1 4 2 3 3 0 1 -1 -2 -3 -4 -2 2 0 -3 -1 -1 -1 -3 -3 -3 -1 3 -9 -3 -1 3 -6 -1 -3 -4 -10 3 -4 11 -4 9
1 1 3 2 -0 1 -0 1 1 -1 1 0 -0 -2 1 -2 -0 -2 0 5 4 -0 -2 -2 -2 -2 -1 -2 1 1 -8 0 2 1 -1 -0 7 8 1 -7 -7 32 14
1 2 3 -0 -2 0 -1 3 1 -1 0 -1 -0 -0 -1 -2 -1 -2 -6 -5 0 -2 -2 -1 -0 -0 -3 -2 0 5 -3 -1 -1 5 1 1 9 3 12 -5 -13 -11 74
3 1 -1 -1 0 1 -1 -6 -7 1 -3 -4 -0 -1 -0 1 -3 -2 -5 -2 -2 -0 1 -0 0 0 -2 1 -1 -2 7 -10 3 3 4 -3 -1 7 4 12 -4 -3 8
1 -1 -2 -1 -1 2 -1 1 -3 -4 -1 -2 1 -1 2 -1 -2 -2 -2 -3 -2 -2 1 -1 0 0 -1 -1 -0 2 0 3 -4 4 3 3 -5 6 1 0 16 -2 -5
2 2 1 -0 -2 -3 -2 -2 -4 -4 -4 -4 -2 -2 -0 -1 -2 -2 -1 -2 -3 -1 -0 -1 -0 0 1 -1 1 1 -1 0 -6 -1 3 3 -0 -1 -5 3 6 6 -18
-4 -3 -4 -4 -0 0 0 -4 -6 -0 -2 -5 -3 0 -1 -3 -1 -2 0 -1 -3 -1 -2 -0 -1 0 0 -1 0 -1 2 4 -2 -1 -3 9 -2 1 -2 3 3 8 1
-3 -3 -3 -3 -3 -3 2 -6 -6 -1 -2 -3 -1 -2 -1 -2 -2 -0 -1 -1 -1 -2 -1 0 -2 -1 -1 -2 -1 -2 -2 6 5 -3 1 2 -11 3 -7 7 2 11 4
-2 -2 0 0 2 0 -4 -0 1 -1 -2 -1 0 -1 -5 0 -1 -2 -3 1 -3 -2 -1 0 -0 -1 -1 1 -1 -1 -1 -3 1 -2 2 -3 4 7 -6 -0 1 12 -6
-1 3 2 1 -1 0 2 2 1 1 -0 -2 -1 -0 1 -0 -1 -0 0 -2 -4 0 -2 -2 0 1 -3 2 -3 -1 -0 -5 1 2 -3 1 0 3 -2 -2 -3 3 -1
5 3 3 -1 -1 -4 -3 -1 -3 -2 -1 -1 0 -1 -3 -2 1 -1 -2 -1 -3 1 -1 -1 -0 1 -3 -0 -2 -2 1 -1 -6 0 -0 -1 -1 0 1 4 -3 4 7
5 1 -1 -1 -1 -0 -2 -2 1 -2 -2 -1 -2 0 -1 -0 1 -3 -2 -2 -2 -1 0 -1 -0 1 -1 -3 2 -2 -1 3 -2 -5 4 -3 0 -4 0 2 -3 6 3
-1 -1 1 5 2 1 -3 -4 -2 -0 -1 -1 -0 -1 -3 -0 -3 -5 -4 -1 2 -3 -1 -1 -0 2 -0 -3 2 0 -3 1 3 -5 -1 -3 -3 -1 4 3 -2 -2 -4
3 8 1 -5 -5 -2 -0 -0 1 1 -0 -1 -2 -0 2 -2 -4 -2 -1 2 -0 -2 -1 -4 -0 3 -1 0 -1 0 -0 -0 3 6 -1 -1 -2 2 -1 2 3 5 -7
1 -3 -2 -3 -0 -0 -1 -5 -3 -1 -1 -0 -0 1 1 -2 -1 -2 -1 1 -2 -2 -1 0 -3 -2 2 2 1 0 -0 -4 3 -1 -1 3 2 2 0 -1 -0 3 -3
-3 -2 -2 -2 -3 -1 1 -4 -4 -1 -1 -1 1 0 -0 -2 -1 -0 1 -3 -2 -2 -0 -1 0 -3 -3 3 0 0 0 3 -5 5 -2 -2 -1 4 -0 -3 -1 1 -4
-2 -2 3 -2 -3 -1 0 -4 -2 0 -1 -3 -3 -1 -3 -4 -2 -1 -2 -0 -1 -3 -3 -2 0 -2 -3 3 1 1 4 1 -1 -4 3 -1 -2 1 -2 -1 -0 1 0
4 2 3 -1 -1 3 6 -2 1 0 -2 -2 -3 0 3 3 2 -0 -1 -0 -2 -2 -2 -3 -2 -1 -7 6 2 3 2 -1 1 -1 -3 -2 -2 -0 -1 0 0 1 -1
-0 -3 -3 -1 -1 -0 0 -7 -5 -5 -2 -2 -4 0 0 -3 -2 -1 -0 0 -1 -5 -1 -2 -1 0 -9 3 3 5 4 0 -4 -3 1 -1 2 -4 -2 0 0 -0 -1
-4 -3 1 0 1 0 3 -2 -1 -1 -4 -3 -3 -0 2 0 2 -0 1 -1 -2 -1 -2 -3 -0 -2 2 -2 -2 5 3 -0 4 -1 -3 -0 -5 6 -4 2 1 -5 -1
-6 3 -2 -2 -2 6 4 1 -5 -3 -1 -2 -0 2 3 2 0 0 0 2 1 -1 -3 -2 -6 -1 -0 1 -4 2 3 6 2 -1 -0 -5 -1 -1 4 5 -4 -5 3
1 7 5 -5 -3 4 6 -2 -3 -3 -4 -0 -1 -1 3 4 5 0 0 -3 1 -1 -5 -1 -4 -5 0 -2 2 -4 -1 7 9 -0 1 -1 -2 -3 0 5 7 3 3
-5 -3 -4 -4 -12 -1 2 2 -1 -0 -0 -6 0 -0 -2 -1 0 -1 0 -1 3 -0 -1 -2 -4 -5 -6 -3 -1 -8 -3 1 4 4 8 5 0 -1 -5 -4 -3 5 -0
-4 4 1 -3 -6 -3 -2 3 1 3 -3 0 -1 -2 -0 -1 -3 1 1 -2 2 2 -1 -2 0 0 -7 -0 0 6 -4 -6 -5 2 1 3 6 5 9 3 -3 -2 3
-5 -4 -1 1 -3 -2 -0 -3 3 3 -2 -1 -2 0 -1 -0 -1 -2 -8 5 -0 1 1 -1 7 -1 -2 3 2 4 6 13 2 4 -2 -3 0 6 -0 -2 -1 -4 -2
Height
1518 1521 1523 1525 1526 1526 1525 1523 1521 1519 1516 1514 1512 1510 1508 1506 1503 1500 1497 1494 1491 1488 1484 1481 1478 1475 1471 1468 1465 1460 1458 1458 1455 1452 1449 1446 1446 1448 1452 1460 1463 1468 1465
1516 1519 1521 1523 1523 1523 1521 1519 1516 1513 1511 1508 1507 1505 1504 1502 1500 1497 1493 1489 1487 1484 1480 1477 1473 1470 1467 1464 1463 1460 1456 1455 1456 1454 1452 1447 1445 1446 1450 1452 1457 1462 1461
1514 1516 1518 1520 1520 1520 1518 1516 1514 1510 1508 1504 1502 1501 1499 1498 1496 1493 1489 1485 1481 1478 1475 1472 1469 1466 1463 1460 1458 1458 1456 1453 1455 1455 1456 1452 1444 1444 1445 1448 1454 1452 1456
1512 1514 1516 1517 1517 1516 1515 1513 1510 1507 1504 1501 1498 1496 1494 1492 1490 1488 1486 1483 1479 1474 1471 1467 1463 1460 1458 1456 1455 1453 1453 1453 1450 1452 1453 1452 1450 1444 1441 1445 1451 1452 1447
1509 1512 1514 1514 1513 1511 1510 1509 1507 1504 1500 1497 1494 1491 1490 1487 1484 1483 1481 1479 1475 1471 1466 1462 1458 1455 1453 1451 1450 1449 1447 1448 1447 1448 1448 1447 1446 1448 1445 1442 1447 1450 1452
1509 1510 1511 1510 1510 1509 1507 1503 1501 1499 1497 1493 1489 1486 1484 1482 1479 1476 1473 1471 1469 1465 1461 1457 1453 1450 1448 1446 1444 1443 1443 1443 1444 1442 1443 1446 1444 1443 1443 1444 1444 1446 1451
1508 1509 1509 1509 1508 1507 1504 1500 1497 1494 1491 1488 1485 1482 1480 1477 1474 1469 1465 1462 1459 1457 1455 1452 1448 1445 1443 1441 1439 1438 1437 1438 1437 1439 1438 1439 1438 1440 1441 1440 1437 1442 1445
1507 1506 1506 1506 1505 1503 1499 1495 1493 1489 1485 1482 1480 1477 1474 1471 1468 1463 1459 1455 1453 1450 1448 1446 1442 1440 1437 1436 1434 1431 1431 1432 1433 1433 1435 1434 1433 1438 1436 1437 1437 1440 1444
1504 1503 1502 1501 1500 1498 1494 1492 1488 1485 1480 1477 1474 1471 1468 1464 1460 1456 1453 1448 1447 1444 1441 1440 1437 1434 1431 1430 1428 1426 1424 1423 1426 1429 1428 1430 1432 1436 1432 1435 1436 1441 1439
1502 1501 1499 1498 1495 1493 1490 1487 1483 1480 1476 1473 1469 1465 1463 1458 1453 1449 1447 1444 1441 1439 1436 1434 1431 1428 1425 1424 1423 1421 1420 1419 1418 1420 1423 1426 1428 1429 1431 1432 1434 1433 1439
1497 1496 1495 1493 1491 1489 1486 1482 1478 1475 1471 1468 1464 1460 1456 1452 1448 1444 1441 1438 1437 1433 1430 1427 1425 1422 1419 1418 1416 1415 1415 1415 1415 1417 1419 1420 1423 1425 1428 1430 1428 1432 1434
1493 1491 1488 1487 1486 1484 1481 1477 1473 1470 1466 1462 1459 1454 1452 1448 1443 1440 1436 1433 1430 1428 1424 1422 1419 1416 1414 1412 1410 1409 1409 1409 1409 1411 1414 1416 1419 1419 1421 1424 1424 1426 1431
1488 1487 1484 1482 1480 1477 1474 1471 1467 1463 1460 1457 1452 1449 1446 1441 1436 1433 1430 1427 1423 1421 1419 1415 1413 1410 1408 1406 1403 1403 1402 1403 1404 1406 1408 1408 1410 1415 1417 1416 1421 1423 1426
1485 1483 1480 1478 1475 1472 1469 1466 1462 1457 1454 1450 1446 1442 1438 1434 1431 1427 1424 1421 1417 1414 1412 1409 1406 1403 1401 1399 1397 1396 1396 1395 1397 1399 1399 1403 1407 1411 1410 1411 1415 1420 1422
1479 1477 1473 1472 1470 1467 1463 1460 1456 1452 1447 1444 1440 1436 1431 1427 1424 1421 1417 1414 1411 1408 1405 1401 1399 1397 1394 1392 1390 1389 1389 1388 1388 1390 1396 1396 1399 1402 1402 1405 1408 1414 1417
1474 1473 1471 1468 1465 1462 1458 1454 1450 1446 1441 1436 1432 1428 1424 1420 1417 1414 1410 1406 1403 1401 1398 1394 1391 1388 1386 1385 1384 1383 1382 1381 1381 1381 1383 1386 1391 1392 1395 1398 1402 1406 1410
1470 1469 1466 1463 1460 1456 1451 1447 1442 1438 1434 1429 1425 1421 1416 1412 1409 1405 1402 1399 1395 1392 1389 1386 1382 1380 1378 1377 1376 1376 1376 1375 1374 1375 1377 1381 1382 1384 1388 1393 1397 1402 1404
1467 1465 1461 1457 1454 1450 1445 1440 1436 1431 1426 1422 1417 1413 1408 1404 1400 1396 1393 1390 1387 1384 1380 1378 1374 1371 1370 1369 1368 1369 1369 1367 1367 1367 1369 1372 1374 1377 1382 1387 1389 1393 1396
1461 1459 1456 1452 1447 1442 1438 1432 1428 1423 1418 1414 1408 1404 1400 1395 1390 1386 1384 1381 1377 1374 1371 1368 1365 1362 1361 1361 1359 1360 1360 1359 1360 1361 1362 1363 1367 1372 1376 1379 1382 1386 1390
1459 1455 1451 1446 1441 1436 1431 1425 1420 1414 1409 1404 1399 1394 1390 1386 1382 1378 1375 1372 1369 1365 1362 1359 1357 1354 1352 1352 1350 1352 1352 1351 1352 1353 1356 1359 1361 1365 1369 1372 1374 1376 1379
1453 1449 1444 1438 1433 1428 1422 1416 1411 1405 1400 1393 1388 1383 1379 1376 1373 1369 1366 1363 1360 1356 1353 1350 1348 1346 1343 1341 1341 1341 1342 1342 1343 1344 1346 1348 1354 1358 1361 1365 1367 1370 1378
1444 1441 1434 1428 1423 1418 1412 1406 1401 1398 1391 1384 1377 1372 1368 1366 1363 1360 1357 1354 1351 1347 1344 1341 1338 1336 1334 1333 1332 1331 1334 1334 1334 1334 1337 1340 1343 1348 1353 1358 1360 1365 1369
1435 1430 1425 1418 1413 1408 1403 1396 1392 1388 1380 1372 1366 1362 1359 1357 1355 1352 1349 1345 1342 1339 1336 1333 1330 1327 1326 1325 1324 1324 1325 1325 1326 1326 1328 1332 1335 1338 1341 1346 1352 1359 1362
1427 1422 1415 1408 1401 1398 1393 1388 1383 1378 1370 1362 1356 1352 1349 1347 1346 1343 1341 1338 1334 1331 1328 1325 1322 1319 1317 1315 1315 1314 1314 1315 1316 1317 1319 1323 1327 1331 1334 1338 1342 1346 1350
1419 1413 1407 1400 1392 1388 1382 1378 1373 1367 1359 1353 1347 1345 1343 1340 1338 1335 1332 1329 1326 1324 1321 1317 1315 1312 1308 1307 1307 1307 1306 1306 1306 1307 1309 1312 1316 1320 1325 1330 1334 1338 1342
1410 1403 1396 1391 1385 1379 1374 1369 1365 1359 1351 1345 1342 1339 1336 1334 1331 1327 1323 1322 1319 1317 1315 1312 1309 1305 1302 1300 1300 1299 1299 1300 1300 1301 1300 1302 1306 1310 1314 1319 1323 1328 1333